Simultaneous Nadir Overpasses (SNOs) Predictions

Prediction of SNOs near US between AQUA and NPP Satellite Orbit:

Table of predicted SNOs near US for the next 10.0 days since TLE Epoch: 12/14/2019
Index Date (AQUA) Time (AQUA) AQUA Lat,Lon Date (NPP) Time (NPP) NPP Lat,Lon Distance(km) Time Diff (sec)
1 12/16/2019 09:23:51 21.77,-113.82 12/16/2019 09:16:00 21.86,-114.28 47.71 471
2 12/19/2019 06:30:10 46.35, -65.03 12/19/2019 06:30:16 46.74, -67.02 158.59 6
3 12/19/2019 08:08:03 49.91, -88.34 12/19/2019 08:10:42 50.42, -90.83 186.28 159
4 12/19/2019 09:46:56 49.92,-113.06 12/19/2019 09:52:10 50.53,-116.16 230.67 314
5 12/21/2019 19:06:13 49.97, -92.54 12/21/2019 19:00:58 49.66, -94.38 136.31 315
6 12/21/2019 20:45:06 49.96,-117.26 12/21/2019 20:42:26 49.55,-119.71 181.60 160




NCC Satellite Simultaneous Nadir Overpasses (SNOs) Prediction Service
